Location: UBC Liquid-Mirror Observatory
(49.2876°N, 122.5728°W)
Time: 21:44:24
(UTC-07:00)

Amateur Radio Satellites - All Passes

Search period start: 26 August 2016 21:14
Search period end: 27 August 2016 21:14
Location: UBC Liquid-Mirror Observatory, 49.2876°N, 122.5728°W

Satellite Date Start Highest point End Downlink Frequencies (MHz)
Time Altitude Azimuth
AIST 2 26 Aug 21:21:33 21:25:45 79° 48° (NE) 21:29:57 435.215
AIST 1 26 Aug 21:23:57 21:28:17 53° 265° (W) 21:32:32
ZACube-1 26 Aug 21:27:46 21:32:14 88° 249° (WSW) 21:36:38 437.345
PCSat 26 Aug 21:30:28 21:35:55 81° 238° (WSW) 21:41:20 145.827
SEEDS 26 Aug 21:30:35 21:33:47 21° 268° (W) 21:37:01 437.485
STRAND 1 26 Aug 21:54:47 21:59:08 29° 298° (WNW) 22:03:27 437.568
HO-68 26 Aug 21:56:43 22:01:45 20° 272° (W) 22:06:49 435.675
Cosmos 2491 26 Aug 22:01:31 22:06:26 16° 313° (NW) 22:11:24 435.465 / 435.565
AAUSAT CUBESAT 2 26 Aug 22:05:18 22:07:58 17° 270° (W) 22:10:40 437.432
O/OREOS (USA 219) 26 Aug 22:06:28 22:08:11 12° 37° (NE) 22:09:55 437.305
COMPASS 1 26 Aug 22:13:47 22:15:15 12° 273° (W) 22:16:43 437.405
DELFI C3 26 Aug 22:15:41 22:19:34 61° 259° (W) 22:23:31 145.870
ANTELSAT 26 Aug 22:17:05 22:18:50 12° 87° (E) 22:20:34 437.575/2403.000
CUBEBUG 1 26 Aug 22:18:56 22:20:44 12° 55° (NE) 22:22:33 437.445
Cosmos 2499 26 Aug 22:22:18 22:27:43 22° 59° (ENE) 22:33:04 435.465 / 435.565
HUMSAT D 26 Aug 22:23:02 22:27:12 80° 75° (ENE) 22:31:20 437.325/437.525
GONETS M04 26 Aug 22:31:27 22:39:34 38° 65° (ENE) 22:47:37
DX 1 26 Aug 22:35:36 22:36:46 11° 54° (NE) 22:37:56 434.975-435.025
Oscar 11 26 Aug 22:38:39 22:41:43 19° 269° (W) 22:44:49 145.826/435.025
AUBIESAT-1 26 Aug 22:39:23 22:43:57 58° 66° (ENE) 22:48:29 437.475
PRISM 26 Aug 22:43:23 22:47:25 47° 290° (WNW) 22:51:26 437.425
M-CUBED/EXP-1 PRIME 26 Aug 22:44:03 22:48:44 76° 68° (ENE) 22:53:28 437.505
FUNcube-1 26 Aug 22:44:48 22:47:54 18° 269° (W) 22:50:57 145.935
TIGRISAT 26 Aug 22:47:01 22:50:27 23° 93° (E) 22:53:50 435.000
ESTCUBE 1 26 Aug 22:48:18 22:52:14 31° 65° (ENE) 22:56:10 437.505/2401.250
UWE-3 26 Aug 22:51:01 22:52:25 11° 274° (W) 22:53:49 435.000/436.395/437.385
AISAT 26 Aug 23:00:52 23:04:32 25° 63° (ENE) 23:08:13 437.250
AIST 2 26 Aug 23:01:19 23:03:42 15° 249° (WSW) 23:06:05 435.215
ZACube-1 26 Aug 23:07:57 23:09:10 11° 274° (W) 23:10:22 437.345
UNISAT 6 26 Aug 23:14:52 23:19:02 44° 99° (E) 23:23:07 437.425
UKube-1 26 Aug 23:15:36 23:18:43 20° 60° (ENE) 23:21:50 .
PCSat 26 Aug 23:15:38 23:18:28 14° 256° (WSW) 23:21:18 145.827
50 SAT 26 Aug 23:22:16 23:25:25 30° 68° (ENE) 23:28:37 437.505
O/OREOS (USA 219) 26 Aug 23:44:08 23:48:40 55° 59° (ENE) 23:53:11 437.305
VELOX 1 26 Aug 23:47:24 23:51:48 63° 72° (ENE) 23:56:14 145.980
SO-50 26 Aug 23:51:30 23:55:18 23° 114° (ESE) 23:59:05 436.795
ANTELSAT 26 Aug 23:51:49 23:56:10 79° 285° (WNW) 00:00:25 437.575/2403.000
CUBEBUG 1 26 Aug 23:51:53 23:56:17 81° 73° (ENE) 00:00:45 437.445
QB50P1 26 Aug 23:59:58 00:03:16 22° 92° (E) 00:06:33 145.935-145.965
HUMSAT D 27 Aug 00:01:55 00:03:22 12° 273° (W) 00:04:50 437.325/437.525
DX 1 27 Aug 00:07:48 00:12:09 71° 73° (ENE) 00:16:33 434.975-435.025
POPSAT HIP 1 27 Aug 00:09:42 00:13:17 26° 94° (E) 00:16:52 437.405
SPROUT 27 Aug 00:13:50 00:18:05 60° 72° (ENE) 00:22:21 437.525
Cosmos 2499 27 Aug 00:14:40 00:21:48 82° 263° (W) 00:28:53 435.465 / 435.565
AUBIESAT-1 27 Aug 00:15:11 00:18:41 21° 263° (W) 00:22:11 437.475
M-CUBED/EXP-1 PRIME 27 Aug 00:20:45 00:23:43 17° 266° (W) 00:26:42 437.505
TIGRISAT 27 Aug 00:23:16 00:27:21 41° 291° (WNW) 00:31:21 435.000
ESTCUBE 1 27 Aug 00:24:53 00:28:58 34° 263° (W) 00:33:07 437.505/2401.250
GONETS M04 27 Aug 00:28:14 00:36:54 62° 268° (W) 00:45:33
CUSAT 1 27 Aug 00:30:07 00:33:07 73° 284° (WNW) 00:36:56 437.405
AISAT 27 Aug 00:36:33 00:40:48 43° 261° (W) 00:45:06 437.250
TISAT 1 27 Aug 00:36:51 00:40:27 27° 65° (ENE) 00:44:03 437.305
DUCHIFAT 1 27 Aug 00:38:11 00:42:15 45° 99° (E) 00:46:17 145.980
QB50P2 27 Aug 00:39:30 00:43:42 56° 101° (E) 00:47:50 145.880/145.840
POLYITAN 1 27 Aug 00:42:02 00:46:14 57° 101° (E) 00:50:21 437.675
ITUPSAT 1 27 Aug 00:49:50 00:51:12 11° 52° (NE) 00:52:34 437.325
UKube-1 27 Aug 00:50:09 00:54:23 56° 259° (WSW) 00:58:41 .
NANOSAT C BR1 27 Aug 00:51:29 00:55:43 67° 102° (ESE) 00:59:53 145.865
UNISAT 6 27 Aug 00:52:08 00:55:31 23° 298° (WNW) 00:58:51 437.425
JAS-2 27 Aug 00:52:28 00:58:48 44° 97° (E) 01:05:48 435.910
50 SAT 27 Aug 00:56:12 00:59:04 22° 266° (W) 01:01:57 437.505
RS-15 27 Aug 01:18:57 01:29:14 40° 107° (ESE) 01:39:58 29.354- 29.394
DANDE 27 Aug 01:19:24 01:21:59 60° 285° (WNW) 01:24:53 436.750
SWISSCUBE 27 Aug 01:20:43 01:24:18 22° 60° (ENE) 01:27:53 437.505
O/OREOS (USA 219) 27 Aug 01:24:19 01:27:42 21° 258° (WSW) 01:31:05 437.305
VELOX 1 27 Aug 01:25:50 01:28:42 17° 270° (W) 01:31:34 145.980
SO-50 27 Aug 01:30:36 01:35:25 64° 313° (NW) 01:40:12 436.795
ANTELSAT 27 Aug 01:30:44 01:32:08 11° 305° (NW) 01:33:32 437.575/2403.000
CUBEBUG 1 27 Aug 01:31:13 01:33:10 13° 273° (W) 01:35:09 437.445
QB50P1 27 Aug 01:35:14 01:39:15 43° 291° (WNW) 01:43:14 145.935-145.965
BUGSAT 1 27 Aug 01:36:55 01:41:08 84° 106° (ESE) 01:45:14 437.445
BEESAT 27 Aug 01:37:27 01:41:25 27° 62° (ENE) 01:45:24 436.000
Gurwin Techsat 1B 27 Aug 01:43:36 01:44:51 11° 84° (E) 01:46:05 435.225
POPSAT HIP 1 27 Aug 01:45:17 01:49:09 35° 293° (WNW) 01:52:59 437.405
DX 1 27 Aug 01:46:27 01:48:52 14° 271° (W) 01:51:16 434.975-435.025
SPROUT 27 Aug 01:51:38 01:54:25 17° 270° (W) 01:57:12 437.525
Cosmos 2499 27 Aug 02:09:43 02:13:42 16° 284° (WNW) 02:17:42 435.465 / 435.565
TISAT 1 27 Aug 02:12:03 02:15:58 36° 263° (W) 02:19:56 437.305
DUCHIFAT 1 27 Aug 02:14:28 02:17:41 22° 298° (WNW) 02:20:53 145.980
QB50P2 27 Aug 02:16:12 02:19:08 18° 299° (WNW) 02:22:02 145.880/145.840
Oscar 19 27 Aug 02:16:21 02:21:18 41° 98° (E) 02:26:12 437.125/150
POLYITAN 1 27 Aug 02:18:44 02:21:38 18° 300° (WNW) 02:24:31 437.675
ITUPSAT 1 27 Aug 02:23:26 02:28:08 64° 71° (ENE) 02:32:52 437.325
GONETS M04 27 Aug 02:27:48 02:31:46 14° 291° (WNW) 02:35:46
NANOSAT C BR1 27 Aug 02:28:22 02:30:58 16° 301° (WNW) 02:33:33 145.865
JAS-2 27 Aug 02:37:42 02:43:51 45° 295° (WNW) 02:50:42 435.910
SWISSCUBE 27 Aug 02:57:02 03:01:43 58° 259° (WSW) 03:06:26 437.505
AO-7 27 Aug 02:59:22 03:02:12 12° 81° (E) 03:05:01 29.400- 29.500
SO-50 27 Aug 03:13:16 03:16:47 20° 335° (NNW) 03:20:16 436.795
BUGSAT 1 27 Aug 03:13:54 03:15:53 13° 303° (WNW) 03:17:50 437.445
BEESAT 27 Aug 03:14:28 03:19:01 45° 261° (W) 03:23:36 436.000
Gurwin Techsat 1B 27 Aug 03:20:27 03:25:47 70° 103° (ESE) 03:31:05 435.225
RS-15 27 Aug 03:29:03 03:40:48 78° 313° (NW) 03:53:11 29.354- 29.394
ITAMSAT 1 27 Aug 03:29:05 03:33:33 28° 94° (E) 03:37:59 435.822/435.867
PHONESAT 2.4 27 Aug 03:33:17 03:34:24 12° 165° (SSE) 03:35:31 2401.200-2431.200
KKS-1 27 Aug 03:34:00 03:38:13 42° 68° (ENE) 03:42:28 437.445
MOZHAYETS 4 27 Aug 03:34:16 03:38:40 50° 70° (ENE) 03:43:05
Oscar 19 27 Aug 03:55:55 04:00:32 33° 297° (WNW) 04:05:08 437.125/150
ITUPSAT 1 27 Aug 04:03:11 04:06:25 18° 270° (W) 04:09:41 437.325
Cosmos 2491 27 Aug 04:07:08 04:14:09 25° 57° (ENE) 04:21:09 435.465 / 435.565
STARS 27 Aug 04:11:46 04:16:04 50° 69° (ENE) 04:20:23 437.465
JAS-2 27 Aug 04:25:42 04:27:33 11° 315° (NW) 04:29:27 435.910
AO-7 27 Aug 04:48:42 04:56:54 57° 103° (ESE) 05:05:02 29.400- 29.500
CUBESAT XI-V 27 Aug 04:52:26 04:56:47 43° 69° (ENE) 05:01:11 437.345
SO-50 27 Aug 04:56:59 04:59:04 13° 360° (N) 05:01:07 436.795
Gurwin Techsat 1B 27 Aug 05:01:17 05:05:14 22° 302° (WNW) 05:09:11 435.225
PHONESAT 2.4 27 Aug 05:08:08 05:10:03 16° 182° (S) 05:11:57 2401.200-2431.200
ITAMSAT 1 27 Aug 05:08:16 05:13:13 46° 293° (WNW) 05:18:08 435.822/435.867
KKS-1 27 Aug 05:11:14 05:14:57 25° 266° (W) 05:18:40 437.445
MOZHAYETS 4 27 Aug 05:12:39 05:16:07 21° 268° (W) 05:19:37
YUBILEINY 27 Aug 05:28:49 05:35:19 24° 77° (ENE) 05:41:47 435.215
AO-85 27 Aug 05:29:38 05:33:46 24° 114° (ESE) 05:37:44 145.980
RS-15 27 Aug 05:44:18 05:55:29 42° 344° (NNW) 06:07:04 29.354- 29.394
STARS 27 Aug 05:49:22 05:52:42 20° 268° (W) 05:56:02 437.465
STRAND 1 27 Aug 05:58:21 06:01:44 18° 56° (NE) 06:05:07 437.568
Cosmos 2491 27 Aug 06:03:26 06:12:20 90° 67° (ENE) 06:21:12 435.465 / 435.565
GOMX 1 27 Aug 06:05:52 06:08:42 14° 84° (E) 06:11:27 467.674
CUTE-I 27 Aug 06:06:00 06:08:08 12° 85° (E) 06:10:14 437.470
NOAA 15 27 Aug 06:08:25 06:11:45 17° 88° (E) 06:15:04 137.62
Cosmos 2504 27 Aug 06:09:18 06:12:54 14° 72° (ENE) 06:16:24 435.465 / 435.565
HORYU 2 27 Aug 06:19:20 06:23:45 66° 103° (ESE) 06:28:08 437.375
BRITE-PL 27 Aug 06:24:53 06:30:17 41° 96° (E) 06:35:34 437.365/2234.400
CUBESAT XI-V 27 Aug 06:30:33 06:34:21 25° 267° (W) 06:38:12 437.345
SO-50 27 Aug 06:37:56 06:41:21 19° 24° (NNE) 06:44:43 436.795
NOAA 18 27 Aug 06:39:29 06:43:38 21° 91° (E) 06:47:44 137.9125
AO-7 27 Aug 06:41:50 06:49:30 43° 304° (NW) 06:57:07 29.400- 29.500
LilacSat-2 27 Aug 06:59:30 07:02:55 31° 96° (E) 07:06:17 437.200
AO-85 27 Aug 07:08:42 07:13:55 68° 312° (NW) 07:18:48 145.980
YUBILEINY 27 Aug 07:22:05 07:30:58 89° 279° (W) 07:39:52 435.215
HO-68 27 Aug 07:31:11 07:34:36 14° 83° (E) 07:37:59 435.675
Cubesat XI-IV 27 Aug 07:31:40 07:36:58 62° 102° (ESE) 07:42:14 437.490
STRAND 1 27 Aug 07:35:12 07:40:19 82° 255° (WSW) 07:45:27 437.568
GOMX 1 27 Aug 07:42:06 07:47:38 85° 103° (ESE) 07:52:54 467.674
CUTE-I 27 Aug 07:43:43 07:49:04 78° 105° (ESE) 07:54:23 437.470
NOAA 15 27 Aug 07:46:51 07:52:12 81° 287° (WNW) 07:57:31 137.62
DOVE 4 27 Aug 07:51:44 07:56:47 52° 98° (E) 08:01:31 437.250
CANX-2 27 Aug 07:55:09 07:57:19 14° 88° (E) 07:59:29 2200.000
Cosmos 2504 27 Aug 07:56:32 08:04:46 63° 93° (E) 08:12:27 435.465 / 435.565
HORYU 2 27 Aug 07:56:55 07:59:52 18° 301° (WNW) 08:02:47 437.375
RS-15 27 Aug 08:00:14 08:11:45 43° 18° (NNE) 08:23:20 29.354- 29.394
CUTE 1.7 + AOD 2 27 Aug 08:01:19 08:03:33 14° 88° (E) 08:05:46 437.475
Cosmos 2491 27 Aug 08:01:36 08:07:59 23° 284° (WNW) 08:14:24 435.465 / 435.565
PRISM 27 Aug 08:02:03 08:05:25 25° 64° (ENE) 08:08:50 437.425
BRITE-PL 27 Aug 08:03:27 08:08:41 39° 294° (WNW) 08:13:52 437.365/2234.400
SO-50 27 Aug 08:18:03 08:22:42 66° 47° (NE) 08:27:13 436.795
NOAA 18 27 Aug 08:19:20 08:24:47 66° 290° (WNW) 08:30:11 137.9125
LilacSat-2 27 Aug 08:34:01 08:37:07 24° 294° (WNW) 08:40:13 437.200
AO-7 27 Aug 08:36:08 08:40:09 15° 329° (NNW) 08:44:11 29.400- 29.500
CINEMA 3 27 Aug 08:36:33 08:40:54 40° 96° (E) 08:45:02 145.822/145.860
UNISAT 6 27 Aug 08:44:49 08:45:51 11° 54° (NE) 08:46:52 437.425
AO-85 27 Aug 08:51:26 08:55:11 20° 333° (NNW) 08:58:46 145.980
UWE-3 27 Aug 08:57:51 08:59:56 13° 88° (E) 09:02:00 435.000/436.395/437.385
CUBEBUG 2 27 Aug 08:58:23 09:01:33 20° 91° (E) 09:04:39 437.445
SEEDS 27 Aug 09:08:54 09:12:59 46° 99° (E) 09:17:03 437.485
Cubesat XI-IV 27 Aug 09:12:28 09:16:39 24° 301° (WNW) 09:20:49 437.490
ZACube-1 27 Aug 09:13:40 09:15:32 13° 87° (E) 09:17:23 437.345
CUSAT 1 27 Aug 09:14:21 09:18:59 22° 64° (ENE) 09:24:20 437.405
HO-68 27 Aug 09:16:31 09:23:42 67° 104° (ESE) 09:30:49 435.675
STRAND 1 27 Aug 09:18:17 09:20:19 12° 274° (W) 09:22:22 437.568
ANTELSAT 27 Aug 09:19:03 09:22:26 21° 62° (ENE) 09:25:47 437.575/2403.000
GOMX 1 27 Aug 09:21:15 09:24:59 19° 303° (WNW) 09:28:39 467.674
YUBILEINY 27 Aug 09:22:12 09:29:08 25° 303° (WNW) 09:36:07 435.215
CUTE-I 27 Aug 09:24:48 09:28:33 20° 304° (WNW) 09:32:16 437.470
ISS 27 Aug 09:27:08 09:29:37 20° 141° (SE) 09:32:06 145.825
NOAA 15 27 Aug 09:28:05 09:31:11 16° 307° (NW) 09:34:18 137.62
CANX-2 27 Aug 09:29:27 09:33:40 70° 286° (WNW) 09:37:53 2200.000
DOVE 4 27 Aug 09:29:55 09:34:08 26° 299° (WNW) 09:38:12 437.250
BEESAT 3 27 Aug 09:35:38 09:37:42 14° 112° (ESE) 09:39:47 437.485
CUTE 1.7 + AOD 2 27 Aug 09:35:39 09:39:52 69° 286° (WNW) 09:44:05 437.475
PRISM 27 Aug 09:36:47 09:40:35 37° 262° (W) 09:44:26 437.425
AAUSAT CUBESAT 2 27 Aug 09:41:22 09:45:29 57° 100° (E) 09:49:35 437.432
COMPASS 1 27 Aug 09:48:57 09:53:09 85° 102° (ESE) 09:57:21 437.405
TIGRISAT 27 Aug 09:49:10 09:53:20 35° 67° (ENE) 09:57:25 435.000
DELFI C3 27 Aug 09:50:24 09:52:20 13° 89° (E) 09:54:16 145.870
Cosmos 2504 27 Aug 09:51:16 09:58:38 34° 294° (WNW) 10:05:36 435.465 / 435.565
AIST 1 27 Aug 09:57:00 10:01:20 72° 97° (E) 10:05:44
SO-50 27 Aug 09:59:20 10:02:43 20° 247° (WSW) 10:06:02 436.795
NOAA 18 27 Aug 10:01:50 10:04:28 14° 310° (NW) 10:07:06 137.9125
QB50P2 27 Aug 10:04:04 10:04:59 11° 55° (NE) 10:05:53 145.880/145.840
POLYITAN 1 27 Aug 10:06:29 10:07:29 11° 55° (NE) 10:08:29 437.675
DANDE 27 Aug 10:07:09 10:10:46 19° 66° (ENE) 10:15:06 436.750
RS-15 27 Aug 10:13:55 10:26:22 80° 48° (NE) 10:38:40 29.354- 29.394
CINEMA 3 27 Aug 10:14:00 10:17:52 27° 297° (WNW) 10:21:35 145.822/145.860
NANOSAT C BR1 27 Aug 10:14:46 10:16:26 12° 56° (NE) 10:18:05 145.865
UNISAT 6 27 Aug 10:17:11 10:21:45 67° 73° (ENE) 10:26:14 437.425
Oscar 11 27 Aug 10:19:55 10:24:12 59° 100° (E) 10:28:27 145.826/435.025
FUNcube-1 27 Aug 10:26:53 10:31:03 64° 101° (ESE) 10:35:09 145.935
UWE-3 27 Aug 10:32:42 10:36:56 69° 287° (WNW) 10:41:03 435.000/436.395/437.385
CUBEBUG 2 27 Aug 10:34:21 10:38:28 46° 290° (WNW) 10:42:27 437.445
AO-85 27 Aug 10:35:35 10:37:25 12° 357° (N) 10:39:12 145.980
SEEDS 27 Aug 10:45:13 10:48:25 21° 297° (WNW) 10:51:37 437.485
ZACube-1 27 Aug 10:48:11 10:52:22 72° 286° (WNW) 10:56:29 437.345
BEESAT 2 27 Aug 10:52:13 10:55:56 40° 121° (ESE) 10:59:42 435.950
ANTELSAT 27 Aug 10:54:18 10:58:49 56° 259° (W) 11:03:16 437.575/2403.000
CUSAT 1 27 Aug 10:55:24 11:01:29 86° 259° (W) 11:09:01 437.405
QB50P1 27 Aug 10:56:09 10:59:50 29° 65° (ENE) 11:03:31 145.935-145.965
BUGSAT 1 27 Aug 10:57:24 10:59:35 14° 58° (ENE) 11:01:47 437.445
ISS 27 Aug 11:02:27 11:05:44 84° 157° (SSE) 11:09:02 145.825
HO-68 27 Aug 11:04:50 11:10:58 32° 305° (NW) 11:17:06 435.675
POPSAT HIP 1 27 Aug 11:05:52 11:09:45 35° 67° (ENE) 11:13:39 437.405
Cosmos 2499 27 Aug 11:06:58 11:11:13 16° 75° (ENE) 11:15:20 435.465 / 435.565
BEESAT 3 27 Aug 11:10:55 11:14:50 76° 310° (NW) 11:18:48 437.485
JAS-2 27 Aug 11:11:02 11:15:22 26° 58° (ENE) 11:19:59 435.910
AAUSAT CUBESAT 2 27 Aug 11:17:47 11:20:36 18° 299° (WNW) 11:23:24 437.432
DELFI C3 27 Aug 11:23:39 11:27:38 67° 286° (WNW) 11:31:36 145.870
TIGRISAT 27 Aug 11:26:00 11:30:03 30° 265° (W) 11:34:04 435.000
COMPASS 1 27 Aug 11:26:12 11:28:07 13° 302° (WNW) 11:30:02 437.405
DUCHIFAT 1 27 Aug 11:33:40 11:37:51 58° 71° (ENE) 11:42:02 145.980
QB50P2 27 Aug 11:35:44 11:40:00 73° 74° (ENE) 11:44:17 145.880/145.840
AIST 1 27 Aug 11:37:02 11:39:30 15° 297° (WNW) 11:42:00
HUMSAT D 27 Aug 11:37:40 11:41:47 85° 107° (ESE) 11:45:52 437.325/437.525
POLYITAN 1 27 Aug 11:38:15 11:42:32 74° 73° (ENE) 11:46:49 437.675
CUBEBUG 1 27 Aug 11:38:24 11:39:56 12° 86° (E) 11:41:29 437.445
GONETS M04 27 Aug 11:38:35 11:46:13 35° 83° (E) 11:53:55
NANOSAT C BR1 27 Aug 11:47:12 11:51:29 84° 75° (ENE) 11:55:46 145.865
DANDE 27 Aug 11:48:47 11:53:47 77° 260° (W) 12:00:28 436.750
AUBIESAT-1 27 Aug 11:49:43 11:52:46 20° 96° (E) 11:55:39 437.475
M-CUBED/EXP-1 PRIME 27 Aug 11:54:44 11:58:22 27° 99° (E) 12:01:44 437.505
UNISAT 6 27 Aug 11:56:02 11:58:55 16° 271° (W) 12:01:45 437.425
Oscar 11 27 Aug 11:56:59 11:59:57 18° 299° (WNW) 12:02:53 145.826/435.025
Oscar 19 27 Aug 12:00:38 12:03:48 17° 55° (NE) 12:07:00 437.125/150
FUNcube-1 27 Aug 12:04:18 12:06:50 16° 300° (WNW) 12:09:22 145.935
ESTCUBE 1 27 Aug 12:12:38 12:16:51 36° 97° (E) 12:21:02 437.505/2401.250
AO-7 27 Aug 12:15:55 12:18:11 11° 24° (NNE) 12:20:28 29.400- 29.500
PCSat 27 Aug 12:16:17 12:21:16 39° 114° (ESE) 12:26:17 145.827
AO-85 27 Aug 12:16:43 12:19:45 17° 22° (NNE) 12:22:38 145.980
50 SAT 27 Aug 12:19:50 12:22:39 21° 94° (E) 12:25:29 437.505
AISAT 27 Aug 12:22:33 12:26:22 27° 94° (E) 12:30:08 437.250
RS-15 27 Aug 12:27:05 12:37:57 39° 253° (WSW) 12:48:41 29.354- 29.394
BUGSAT 1 27 Aug 12:30:07 12:34:23 83° 258° (WSW) 12:38:40 437.445
BEESAT 2 27 Aug 12:30:19 12:33:52 30° 321° (NW) 12:37:27 435.950
QB50P1 27 Aug 12:31:38 12:35:32 34° 263° (W) 12:39:27 145.935-145.965
UKube-1 27 Aug 12:33:47 12:36:46 18° 91° (E) 12:39:45 .
CUSAT 1 27 Aug 12:38:48 12:43:00 19° 275° (W) 12:47:43 437.405
ISS 27 Aug 12:39:06 12:42:21 54° 358° (N) 12:45:37 145.825
POPSAT HIP 1 27 Aug 12:41:54 12:45:36 28° 265° (W) 12:49:18 437.405
BEESAT 3 27 Aug 12:50:30 12:53:10 17° 331° (NNW) 12:55:50 437.485
JAS-2 27 Aug 12:55:01 13:00:08 54° 261° (W) 13:05:39 435.910
Cosmos 2499 27 Aug 12:55:03 13:03:06 73° 96° (E) 13:10:34 435.465 / 435.565
AIST 2 27 Aug 13:00:55 13:04:45 40° 121° (ESE) 13:08:39 435.215
Gurwin Techsat 1B 27 Aug 13:07:05 13:11:33 28° 61° (ENE) 13:16:01 435.225
VELOX 1 27 Aug 13:09:32 13:14:02 71° 104° (ESE) 13:18:29 145.980
DUCHIFAT 1 27 Aug 13:11:09 13:13:54 17° 270° (W) 13:16:40 145.980
CUBEBUG 1 27 Aug 13:12:24 13:16:53 89° 297° (WNW) 13:21:19 437.445
QB50P2 27 Aug 13:14:09 13:16:19 14° 272° (W) 13:18:29 145.880/145.840
HUMSAT D 27 Aug 13:15:04 13:16:48 12° 302° (WNW) 13:18:32 437.325/437.525
ITAMSAT 1 27 Aug 13:15:22 13:17:33 13° 51° (NE) 13:19:44 435.822/435.867
POLYITAN 1 27 Aug 13:16:43 13:18:50 13° 272° (W) 13:20:58 437.675
AUBIESAT-1 27 Aug 13:23:30 13:27:31 46° 297° (WNW) 13:31:14 437.475
NANOSAT C BR1 27 Aug 13:26:21 13:27:49 12° 273° (W) 13:29:17 145.865
DX 1 27 Aug 13:27:48 13:32:13 74° 103° (ESE) 13:36:36 434.975-435.025
M-CUBED/EXP-1 PRIME 27 Aug 13:29:03 13:32:57 35° 300° (WNW) 13:36:35 437.505
SPROUT 27 Aug 13:31:19 13:35:36 65° 102° (ESE) 13:39:50 437.525
DANDE 27 Aug 13:33:45 13:36:10 13° 273° (W) 13:38:49 436.750
GONETS M04 27 Aug 13:33:54 13:42:34 63° 285° (WNW) 13:51:21
Oscar 19 27 Aug 13:37:14 13:42:25 88° 74° (ENE) 13:47:40 437.125/150
ESTCUBE 1 27 Aug 13:49:38 13:53:35 30° 295° (WNW) 13:57:31 437.505/2401.250
TISAT 1 27 Aug 13:51:43 13:55:16 25° 94° (E) 13:58:46 437.305
50 SAT 27 Aug 13:53:01 13:56:19 33° 291° (WNW) 13:59:38 437.505
AO-85 27 Aug 13:56:47 14:01:11 58° 46° (NE) 14:05:13 145.980
AISAT 27 Aug 13:58:47 14:02:57 39° 293° (WNW) 14:07:05 437.250
PCSat 27 Aug 13:59:28 14:04:38 44° 315° (NW) 14:09:51 145.827
O/OREOS (USA 219) 27 Aug 14:01:11 14:04:58 27° 105° (ESE) 14:08:48 437.305
AO-7 27 Aug 14:01:20 14:08:22 32° 50° (NE) 14:15:23 29.400- 29.500
UKube-1 27 Aug 14:08:53 14:13:10 55° 290° (WNW) 14:17:24 .
BEESAT 2 27 Aug 14:11:47 14:12:55 11° 344° (NNW) 14:14:03 435.950
ISS 27 Aug 14:15:42 14:19:01 89° 21° (NNE) 14:22:18 145.825
ITUPSAT 1 27 Aug 14:21:42 14:23:28 12° 86° (E) 14:25:15 437.325
AIST 2 27 Aug 14:39:34 14:43:19 33° 320° (NW) 14:47:07 435.215
Gurwin Techsat 1B 27 Aug 14:46:05 14:51:15 51° 260° (W) 14:56:28 435.225
VELOX 1 27 Aug 14:47:07 14:50:00 17° 302° (WNW) 14:52:51 145.980
Cosmos 2499 27 Aug 14:50:16 14:56:54 28° 297° (WNW) 15:03:12 435.465 / 435.565
CUBEBUG 1 27 Aug 14:50:21 14:52:29 13° 304° (NW) 14:54:38 437.445
ITAMSAT 1 27 Aug 14:50:57 14:56:05 66° 71° (ENE) 15:01:14 435.822/435.867
SWISSCUBE 27 Aug 14:53:12 14:57:12 26° 94° (E) 15:01:11 437.505
DX 1 27 Aug 15:05:13 15:07:53 16° 302° (WNW) 15:10:32 434.975-435.025
SPROUT 27 Aug 15:08:19 15:11:05 17° 301° (WNW) 15:13:50 437.525
BEESAT 27 Aug 15:10:09 15:14:29 33° 96° (E) 15:18:46 436.000
Oscar 19 27 Aug 15:19:41 15:22:28 14° 273° (W) 15:25:17 437.125/150
TISAT 1 27 Aug 15:27:07 15:31:01 36° 292° (WNW) 15:34:51 437.305
YUBILEINY 27 Aug 15:31:42 15:36:46 16° 47° (NE) 15:41:47 435.215
GONETS M04 27 Aug 15:36:11 15:41:35 17° 311° (NW) 15:47:03
AO-85 27 Aug 15:38:03 15:41:10 20° 247° (WSW) 15:44:08 145.980
O/OREOS (USA 219) 27 Aug 15:39:56 15:44:13 41° 305° (NW) 15:48:32 437.305
PCSat 27 Aug 15:46:10 15:49:29 16° 339° (NNW) 15:52:47 145.827
HORYU 2 27 Aug 15:47:01 15:49:35 15° 57° (ENE) 15:52:09 437.375
AO-7 27 Aug 15:52:02 16:00:26 80° 251° (WSW) 16:08:51 29.400- 29.500
ISS 27 Aug 15:52:31 15:55:11 23° 218° (SW) 15:57:50 145.825
ITUPSAT 1 27 Aug 15:57:15 16:02:03 86° 107° (ESE) 16:06:50 437.325
BRITE-PL 27 Aug 16:05:06 16:07:04 12° 50° (NE) 16:09:04 437.365/2234.400
BEESAT 3 27 Aug 16:10:21 16:11:55 12° 20° (NNE) 16:13:29 437.485
AIST 2 27 Aug 16:21:25 16:23:02 12° 343° (NNW) 16:24:40 435.215
SWISSCUBE 27 Aug 16:30:39 16:35:10 44° 292° (WNW) 16:39:41 437.505
ITAMSAT 1 27 Aug 16:32:16 16:36:03 20° 270° (W) 16:39:48 435.822/435.867
NOAA 18 27 Aug 16:33:00 16:35:19 13° 48° (NE) 16:37:37 137.9125
BEESAT 27 Aug 16:47:57 16:52:16 35° 295° (WNW) 16:56:34 436.000
KKS-1 27 Aug 16:56:55 17:01:15 46° 99° (E) 17:05:32 437.445
MOZHAYETS 4 27 Aug 17:01:47 17:06:22 67° 102° (ESE) 17:10:55
Cosmos 2491 27 Aug 17:16:07 17:22:20 22° 76° (ENE) 17:28:36 435.465 / 435.565
GOMX 1 27 Aug 17:17:09 17:21:13 24° 60° (ENE) 17:25:27 467.674
Cubesat XI-IV 27 Aug 17:19:17 17:23:39 26° 60° (ENE) 17:28:01 437.490
HORYU 2 27 Aug 17:21:05 17:25:34 81° 256° (WSW) 17:30:03 437.375
DOVE 4 27 Aug 17:25:40 17:28:37 15° 55° (NE) 17:31:37 437.250
YUBILEINY 27 Aug 17:27:13 17:35:55 59° 74° (ENE) 17:44:28 435.215
BEESAT 2 27 Aug 17:28:53 17:31:56 20° 32° (NNE) 17:34:59 435.950
CUTE-I 27 Aug 17:30:47 17:35:27 32° 62° (ENE) 17:40:07 437.470
NOAA 15 27 Aug 17:32:01 17:36:53 40° 65° (ENE) 17:41:48 137.62
STARS 27 Aug 17:33:03 17:37:24 54° 101° (E) 17:41:41 437.465
PCSat 27 Aug 17:33:12 17:35:17 12° 5° (N) 17:37:20 145.827
ITUPSAT 1 27 Aug 17:36:26 17:39:16 16° 304° (NW) 17:42:05 437.325
BRITE-PL 27 Aug 17:39:32 17:44:23 62° 72° (ENE) 17:49:42 437.365/2234.400
Cosmos 2504 27 Aug 17:44:29 17:50:38 28° 62° (ENE) 17:56:36 435.465 / 435.565
LilacSat-2 27 Aug 17:45:25 17:48:46 29° 68° (ENE) 17:52:07 437.200
BEESAT 3 27 Aug 17:46:56 17:50:40 37° 42° (NE) 17:54:23 437.485
AO-7 27 Aug 17:48:48 17:54:30 20° 273° (W) 18:00:15 29.400- 29.500
HO-68 27 Aug 18:04:33 18:09:30 21° 47° (NE) 18:14:28 435.675
CINEMA 3 27 Aug 18:08:30 18:09:56 11° 53° (NE) 18:11:23 145.822/145.860
NOAA 18 27 Aug 18:09:29 18:14:55 60° 69° (ENE) 18:20:22 137.9125
CUBESAT XI-V 27 Aug 18:21:33 18:26:14 61° 101° (E) 18:30:53 437.345
KKS-1 27 Aug 18:34:00 18:37:35 24° 298° (WNW) 18:41:08 437.445
MOZHAYETS 4 27 Aug 18:39:59 18:43:04 18° 301° (WNW) 18:46:08
CANX-2 27 Aug 18:51:52 18:54:41 18° 61° (ENE) 18:57:30 2200.000
GOMX 1 27 Aug 18:53:43 18:58:50 64° 260° (W) 19:04:14 467.674
CUTE 1.7 + AOD 2 27 Aug 18:57:58 19:00:47 18° 61° (ENE) 19:03:38 437.475
Cubesat XI-IV 27 Aug 18:58:10 19:03:25 56° 259° (W) 19:08:41 437.490
DOVE 4 27 Aug 19:00:15 19:05:28 78° 74° (ENE) 19:10:49 437.250
HORYU 2 27 Aug 19:02:44 19:02:52 10° 274° (W) 19:03:00 437.375
BEESAT 2 27 Aug 19:06:14 19:10:15 82° 235° (SW) 19:14:16 435.950
Cosmos 2491 27 Aug 19:09:13 19:17:57 89° 104° (ESE) 19:26:48 435.465 / 435.565
STARS 27 Aug 19:10:08 19:13:25 21° 299° (WNW) 19:16:39 437.465
CUTE-I 27 Aug 19:10:17 19:15:22 44° 262° (W) 19:20:29 437.470
COMPASS 1 27 Aug 19:10:45 19:12:35 13° 58° (ENE) 19:14:24 437.405
NOAA 15 27 Aug 19:11:58 19:16:44 34° 264° (W) 19:21:33 137.62
PCSat 27 Aug 19:16:35 19:20:48 22° 31° (NNE) 19:25:01 145.827
BRITE-PL 27 Aug 19:19:40 19:23:24 21° 272° (W) 19:27:21 437.365/2234.400
LilacSat-2 27 Aug 19:19:47 19:23:04 26° 265° (W) 19:26:21 437.200
YUBILEINY 27 Aug 19:24:33 19:32:21 38° 276° (W) 19:40:06 435.215
BEESAT 3 27 Aug 19:24:45 19:28:17 31° 241° (WSW) 19:31:48 437.485
Cosmos 2504 27 Aug 19:37:27 19:44:42 68° 266° (W) 19:51:46 435.465 / 435.565
AIST 2 27 Aug 19:40:10 19:43:25 21° 32° (NNE) 19:46:40 435.215
CINEMA 3 27 Aug 19:41:12 19:46:09 61° 72° (ENE) 19:51:02 145.822/145.860
STRAND 1 27 Aug 19:41:53 19:46:04 25° 93° (E) 19:50:14 437.568
Oscar 11 27 Aug 19:46:05 19:47:17 11° 55° (NE) 19:48:29 145.826/435.025
HO-68 27 Aug 19:48:59 19:56:09 75° 69° (ENE) 20:03:21 435.675
NOAA 18 27 Aug 19:51:32 19:55:58 24° 267° (W) 20:00:25 137.9125
FUNcube-1 27 Aug 19:52:58 19:54:44 12° 57° (ENE) 19:56:30 145.935
UWE-3 27 Aug 19:58:08 20:01:32 21° 62° (ENE) 20:04:53 435.000/436.395/437.385
CUBESAT XI-V 27 Aug 19:59:46 20:03:13 21° 299° (WNW) 20:06:39 437.345
CUBEBUG 2 27 Aug 19:59:50 20:03:53 31° 66° (ENE) 20:07:52 437.445
AIST 1 27 Aug 19:59:54 20:03:45 28° 70° (ENE) 20:07:34
SEEDS 27 Aug 20:04:22 20:08:26 54° 72° (ENE) 20:12:31 437.485
ZACube-1 27 Aug 20:12:52 20:16:01 19° 62° (ENE) 20:19:07 437.345
CANX-2 27 Aug 20:26:00 20:30:08 58° 259° (W) 20:34:19 2200.000
CUTE 1.7 + AOD 2 27 Aug 20:32:06 20:36:14 58° 260° (W) 20:40:24 437.475
AAUSAT CUBESAT 2 27 Aug 20:35:18 20:39:21 64° 74° (ENE) 20:43:27 437.432
DOVE 4 27 Aug 20:40:19 20:43:45 18° 273° (W) 20:47:16 437.250
DELFI C3 27 Aug 20:40:30 20:42:42 15° 60° (ENE) 20:44:55 145.870
COMPASS 1 27 Aug 20:43:23 20:47:31 85° 257° (WSW) 20:51:41 437.405
BEESAT 2 27 Aug 20:46:30 20:47:24 11° 251° (WSW) 20:48:17 435.950
PCSat 27 Aug 20:59:36 21:05:05 79° 54° (NE) 21:10:30 145.827
HUMSAT D 27 Aug 20:59:45 21:01:41 13° 58° (ENE) 21:03:37 437.325/437.525
AUBIESAT-1 27 Aug 21:07:54 21:08:53 11° 46° (NE) 21:09:53 437.475
